Home > Weather > Richmond Hill > Past weeks

Flag for Canada Weather for the Past 2 Weeks in Richmond Hill, Ontario, Canada

Now
32 °F

Partly cloudy.


Feels Like: 26 °F
Forecast: 27 / 38 °F
Wind: 7 mph from Southwest

Location: Toronto Buttonville

Current Time: Feb 6, 2016 at 11:19:27 PM

Latest Report: Feb 6, 2016 at 10:00 PM


Visibility: 15 mi

Pressure: 30.14 "Hg

Humidity: 69%

Dew point: 23 °F

Location of Richmond HillLocation

Historic Weather in Richmond Hill — Graph

°F

Richmond Hill Temperature Yesterday

Maximum temperature yesterday: 34 °F (at 3:00 PM)
Minimum temperature yesterday: 25 °F (at 7:00 AM)
Average temperature yesterday: 29 °F

High & Low Weather Summary for the Past Weeks

 TemperatureHumidityPressure
High59 °F (Feb 3, 3:00 PM)100% (Jan 31, 6:00 PM)30.36 "Hg (Jan 31, 6:00 PM)
Low10 °F (Jan 23, 7:00 AM)34% (Feb 3, 4:00 PM)29.44 "Hg (Feb 1, 12:00 AM)
Average31 °F73%29.93 "Hg
* Reported Jan 22 10:00 PM — Feb 6 10:00 PM, Richmond Hill, Weather by CustomWeather, © 2016

Note: Actual official high and low records may vary slightly from our data, if they occured in-between our weather recording intervals... More about our weather records

Advertising

Richmond Hill Weather History for the Previous 24 Hours

 ConditionsComfort  
Time TempWeatherWind HumidityBarometerVisibility
10:00 PM
Sat, Feb 6
32 °FPartly cloudy.7 mph69%30.14 "Hg15 mi
9:00 PM34 °FPassing clouds.9 mph65%30.15 "Hg15 mi
8:00 PM34 °FPassing clouds.13 mph65%30.15 "Hg15 mi
7:00 PM36 °FPartly cloudy.13 mph52%30.15 "Hg15 mi
6:00 PM36 °FPassing clouds.13 mph44%30.13 "Hg15 mi
5:00 PM37 °FPartly sunny.14 mph45%30.13 "Hg15 mi
4:00 PM37 °FScattered clouds.13 mph41%30.14 "Hg15 mi
3:00 PM37 °FPartly sunny.13 mph45%30.14 "Hg15 mi
2:00 PM37 °FScattered clouds.12 mph48%30.15 "Hg15 mi
1:00 PM36 °FPartly sunny.14 mph52%30.17 "Hg15 mi
12:00 PM34 °FOvercast.12 mph60%30.20 "Hg15 mi
11:00 AM32 °FMostly cloudy.10 mph69%30.22 "Hg15 mi
10:00 AM32 °FBroken clouds.7 mph75%30.21 "Hg15 mi
9:00 AM30 °FScattered clouds.8 mph80%30.22 "Hg12 mi
8:00 AM28 °FScattered clouds.5 mph93%30.21 "Hg10 mi
7:00 AM30 °FSnow flurries. Overcast.5 mph86%30.20 "Hg6 mi
6:00 AM30 °FSnow flurries. Overcast.3 mph86%30.20 "Hg6 mi
5:00 AM30 °FSnow flurries. Overcast.5 mph86%30.20 "Hg4 mi
4:00 AM30 °FMostly cloudy.5 mph75%30.21 "Hg15 mi
3:00 AM30 °FMostly cloudy.5 mph75%30.22 "Hg15 mi
2:00 AM30 °FOvercast.9 mph75%30.23 "Hg12 mi
1:00 AM30 °FOvercast.7 mph75%30.24 "Hg12 mi
12:00 AM30 °FOvercast.6 mph75%30.26 "Hg12 mi
11:49 PM
Fri, Feb 5
30 °FSnow flurries. Overcast.6 mph75%30.27 "Hg7 mi
11:00 PM30 °FOvercast.7 mph69%30.28 "Hg15 mi
Weather by CustomWeather, © 2016

See weather overviewHow to use our weather pages